Location: Darr Branch
(32.1532°N, 97.3853°W)
Time: 19:04:52
(UTC+00:00)

Daily predictions for brighter satellites

Satellite Brightness Start Highest point End
(mag) Time Altitude Azimuth Time Altitude Azimuth Time Altitude Azimuth
Lacrosse 5 rocket 3.5 12:02:10 10° N 12:03:54 13° NE 12:05:39 10° ENE
Lacrosse 4 Rocket 4.0 12:02:39 10° NNE 12:04:49 14° ENE 12:06:59 10° E
Okean 1 Rocket 3.4 12:01:08 10° N 12:05:25 66° E 12:09:40 10° SSE
Meteor 2-17 Rocket 4.4 12:00:44 10° SSW 12:06:43 65° W 12:12:46 10° N
Hubble Space Telescope 2.0 12:03:31 10° SW 12:06:57 33° SSE 12:10:24 10° ESE
ATLAS 3B R/B 4.0 12:03:11 15° W 12:07:14 23° NW 12:13:11 10° N
Helios 1A Rocket 2.3 12:05:45 10° S 12:09:05 73° WSW 12:12:27 10° NNW
Sich 1 Rocket 3.8 12:05:39 10° N 12:10:09 78° E 12:14:35 10° S
Cosmos 968 Rocket 3.5 12:04:58 10° NNW 12:10:09 66° WSW 12:15:19 10° S
CENTAUR R/B 3.5 12:02:38 10° NNW 12:11:34 89° ENE 12:21:07 10° SSE
COSMO-SKYMED 1 2.4 12:08:06 10° S 12:12:13 83° WSW 12:16:21 10° NNW
Cosmos 1484 Rocket 2.4 12:12:25 10° N 12:15:55 73° WNW 12:19:22 10° SSW
SL-8 R/B 3.9 12:15:17 10° WSW 12:19:55 52° NW 12:24:34 10° NE
IRS-1D 4.4 12:16:04 10° NNW 12:20:02 25° WNW 12:24:01 10° WSW
CZ-3 R/B 2.3 12:08:08 10° W 12:22:23 67° S 12:27:21 10° ESE
Cosmos 1812 4.1 12:22:44 11° W 12:22:44 11° W 12:23:28 10° WSW
SJ 16-02 3.2 12:22:31 10° W 12:23:17 11° W 12:24:21 10° WSW
IGS 5A 3.3 12:23:54 10° N 12:27:52 84° WNW 12:31:49 10° SSW
Cosmos 1302 Rocket 4.4 12:24:42 10° SW 12:29:32 40° WNW 12:34:23 10° N
Cosmos 1741 Rocket 4.1 12:24:50 10° NNW 12:30:02 59° WSW 12:35:12 10° S
Cosmos 1975 Rocket 3.6 12:25:56 10° S 12:30:08 62° E 12:34:22 10° NNE
USA 234 3.9 12:24:49 10° ESE 12:31:08 53° NE 12:37:28 10° NNW
Cosmos 1992 Rocket 4.0 12:28:56 10° SSW 12:34:07 73° WNW 12:39:20 10° NNE
Cosmos 1441 Rocket 3.3 12:31:57 10° SSW 12:35:05 38° W 12:38:13 10° N
Tsikada Rocket 4.0 12:30:49 10° S 12:37:06 77° W 12:43:31 10° N
Cosmos 1025 Rocket 4.3 12:36:33 10° SW 12:39:50 21° WNW 12:43:09 10° NNW
GOES 2 Rocket 3.8 12:36:25 10° WSW 12:40:27 47° S 12:44:40 10° E
